map of FEZ home
Great Circle Mapper logo
FEZ - Airport
Location
City:  Fez, Morocco
Near (Alt.):Fes
Name:Sa´ss
ICAO / IATA:GMFF / FEZ

Details
Type:Airport (Aerodrome, Airfield)
Use:Public/Civil, International (customs port of entry)
Latitude:33░55'38"N (33.927261)
Longitude:4░58'41"W (-4.977957)
Datum:WGS 1984
Elevation:1900 ft (579 m)
Runways:1
Longest:10499 × 148 ft (3200 × 45 m), paved

Time
Time Zone:UTC+0 (DST+1)
Local Time:

Weather
METAR:GMFF 291200Z 31008KT 240V360 CAVOK 29/15 Q1016 NOSIG
TAF:GMFF 291100Z 2912/3018 30010KT CAVOK
TEMPO 2913/2918 FEW033
BECMG 2922/3001 18006KT CAVOK
BECMG 3007/3011 32010KT

Related Locations
Nearby:
Farthest:KKE: 12322 mi / 19830 km
Kerikeri/Bay of Islands, NZ

Find:

   beyond  
but within

Other Information
Maps:
NOTAMs:
Links:
Sources:

  
flag of Morocco   

Sectional Chart

Flight Planning
at skyvector.com

Satellite Image

Google Maps Satellite View

 

Copyright © 2004-2014 Karl L. Swartz. All rights reserved.
The Great Circle Mapper name and logo are trademarks of the Great Circle Mapper.
All other trademarks mentioned herein belong to their respective owners.
Please see credits for attibutions and further copyright information.

  Follow gcmap on Facebook Follow gcmap on Twitter

hCard Microformat

Geo Microformat